Location: Burleson Fire Department Station 2
(32.5391°N, 97.3075°W)
Time: 00:02:08
(UTC+00:00)

NOAA 15 - Pass Details

Date: 11 December 2024
Orbit: 794 x 810 km, 98.6° (Epoch: 19 January)

Event Time Altitude Azimuth Distance (km) Brightness Sun altitude
Rises 02:37:59 0° 212° (SSW) 3,314 8.2 -40.0°
Reaches altitude 10° 02:41:37 10° 238° (WSW) 2,387 7.6 -40.8°
Maximum altitude 02:44:09 14° 267° (W) 2,148 7.4 -41.3°
Drops below altitude 10° 02:46:41 10° 296° (WNW) 2,391 7.6 -41.8°
Sets 02:50:21 0° 322° (NW) 3,323 8.2 -42.6°
